Skip Page Navigation
NASA JPL Caltech
NASA Logo - Jet Propulsion Laboratory + View the NASA Portal
+ Near-Earth Object (NEO) Program
Search JPL
JPL Home Earth Solar System Stars & Galaxies Technology
JPL Solar System Dynamics
BODIES ORBITS EPHEMERIDES TOOLS PHYSICAL DATA DISCOVERY FAQ SITE MAP
JPL Small-Body Database Browser
Search: [ help ]  
230549 (2003 BH)
Classification: Apollo [NEO, PHA]          SPK-ID: 2230549
Ephemeris | Orbit Diagram | Orbital Elements | Physical Parameters | Discovery Circumstances | Close-Approach Data ]

[ hide orbit diagram ]
Orbit Diagram
Note: Make sure you have Java enabled on your browser to see the applet. This applet is provided as a 3D orbit visualization tool. The applet was implemented using 2-body methods, and hence should not be used for determining accurate long-term trajectories (over several years or decades) or planetary encounter circumstances. For accurate long-term ephemerides, please instead use our Horizons system.
Orbit Viewer

Additional Notes: the orbits shown in the applet are color coded. The planets are white lines, and the asteroid/comet is a blue line. The bright white line indicates the portion of the orbit that is above the ecliptic plane, and the darker portion is below the ecliptic plane. Likewise for the asteroid/comet orbit, the light blue indicates the portion above the ecliptic plane, and the dark blue the portion below the ecliptic plane.

Orbit Viewer applet originally written and kindly provided by Osamu Ajiki (AstroArts), and further modified by Ron Baalke (JPL).


Orbital Elements at Epoch 2456400.5 (2013-Apr-18.0) TDB
Reference: JPL 40 (heliocentric ecliptic J2000)
 Element Value Uncertainty (1-sigma)   Units 
e .3560982677068228 1.3139e-07  
a 1.456124301397968 5.5797e-09 AU
q .9376009601043441 1.9159e-07 AU
i 13.11142139021724 1.8687e-05 deg
node 119.8220404041854 1.5127e-05 deg
peri 313.3179452982882 5.1719e-05 deg
M 323.3240253230595 1.9484e-05 deg
tp 2456465.884568978333
(2013-Jun-22.38456898)
3.4626e-05 JED
period 641.7946636602755
1.76
3.6889e-06
1.01e-08
d
yr
n .5609270696438209 3.2241e-09 deg/d
Q 1.974647642691592 7.5667e-09 AU
  Orbit Determination Parameters
   # obs. used (total)      150  
   data-arc span      2582 days (7.07 yr)  
   first obs. used      2003-01-18  
   last obs. used      2010-02-12  
   planetary ephem.      DE405  
   SB-pert. ephem.      SB405-CPV-2  
   condition code      0  
   fit RMS      .52729  
   data source      ORB  
   producer      Otto Matic  
   solution date      2013-Apr-29 15:40:49  

Additional Information
 Earth MOID = .0281352 AU 
 T_jup = 4.536 
[ show covariance matrix ]

Ephemeris | Orbit Diagram | Orbital Elements | Physical Parameters | Discovery Circumstances | Close-Approach Data ]

Physical Parameter Table
Parameter Symbol Value Units Sigma Reference Notes
absolute magnitude H 20.501 mag .51254 40 autocmod 2.5c

230549 (2003 BH)          Discovered 2003-Jan-18 by NEAT at Haleakala (608)
Reference: 20100130/Numbers.arcLast Updated: 2010-02-01

[ show close-approach data ]
Ephemeris | Orbit Diagram | Orbital Elements | Physical Parameters | Discovery Circumstances | Close-Approach Data ]
ABOUT SSD CREDITS/AWARDS PRIVACY/COPYRIGHT GLOSSARY LINKS
FirstGov 2013-Jun-19 23:54 UT
(server date/time)  
NASA Home Page
Site Manager:   Donald K. Yeomans
Webmaster  Alan B. Chamberlin